contact:dominique.lefevre@mio.osupytheas.fr, maurice.libes@osupytheas.fr, didier.mallarino@osupytheas.fr
Project:EMSO http://www.emso-fr.org/EMSO-France
Depth: 2436.0 m
Title:EMSO Ligure Ouest : Data MII capteur MICROCAT
DateTime_Computer,Latitude,Longitude,Temperature,Conductivity,Pressure,DateTime_Instrument
DateTime_Computer,Latitude,Longitude,degC,S m-1,dbar,DateTime_Instrument
2022-09-23T00:01:49Z,42.805,6.029,13.3051,4.60091,2470.567,2022-9-23T02:03:42Z
2022-09-23T00:04:52Z,42.805,6.029,13.3082,4.60084,2470.544,2022-9-23T02:06:45Z
2022-09-23T00:07:55Z,42.805,6.029,13.3077,4.60110,2470.567,2022-9-23T02:09:48Z
2022-09-23T00:10:58Z,42.805,6.029,13.3082,4.60097,2470.553,2022-9-23T02:12:51Z
2022-09-23T00:14:01Z,42.805,6.029,13.3083,4.60079,2470.567,2022-9-23T02:15:54Z
2022-09-23T00:17:04Z,42.805,6.029,13.3091,4.60078,2470.544,2022-9-23T02:18:57Z
2022-09-23T00:20:07Z,42.805,6.029,13.3089,4.60082,2470.567,2022-9-23T02:22:00Z
2022-09-23T00:23:11Z,42.805,6.029,13.3083,4.60087,2470.544,2022-9-23T02:25:04Z
2022-09-23T00:26:14Z,42.805,6.029,13.3076,4.60108,2470.553,2022-9-23T02:28:07Z
2022-09-23T00:29:17Z,42.805,6.029,13.3079,4.60109,2470.567,2022-9-23T02:31:10Z
2022-09-23T00:32:20Z,42.805,6.029,13.3077,4.60103,2470.591,2022-9-23T02:34:13Z
2022-09-23T00:35:23Z,42.805,6.029,13.3074,4.60087,2470.567,2022-9-23T02:37:16Z
2022-09-23T00:38:26Z,42.805,6.029,13.3069,4.60084,2470.53,2022-9-23T02:40:19Z
2022-09-23T00:41:29Z,42.805,6.029,13.3048,4.60097,2470.553,2022-9-23T02:43:22Z
2022-09-23T00:44:32Z,42.805,6.029,13.3038,4.60101,2470.553,2022-9-23T02:46:25Z
2022-09-23T00:47:35Z,42.805,6.029,13.3048,4.60103,2470.567,2022-9-23T02:49:29Z
2022-09-23T00:50:39Z,42.805,6.029,13.3043,4.60099,2470.544,2022-9-23T02:52:32Z
2022-09-23T00:53:42Z,42.805,6.029,13.3063,4.60088,2470.567,2022-9-23T02:55:35Z
2022-09-23T00:56:45Z,42.805,6.029,13.3083,4.60102,2470.553,2022-9-23T02:58:38Z
2022-09-23T00:59:48Z,42.805,6.029,13.3065,4.60104,2470.53,2022-9-23T03:01:41Z
2022-09-23T01:02:51Z,42.805,6.029,13.3066,4.60080,2470.553,2022-9-23T03:04:44Z
2022-09-23T01:05:54Z,42.805,6.029,13.3104,4.60081,2470.577,2022-9-23T03:07:47Z
2022-09-23T01:08:57Z,42.805,6.029,13.3068,4.60089,2470.567,2022-9-23T03:10:50Z
2022-09-23T01:12:00Z,42.805,6.029,13.3062,4.60092,2470.553,2022-9-23T03:13:54Z
2022-09-23T01:15:04Z,42.805,6.029,13.3062,4.60132,2470.544,2022-9-23T03:16:57Z
2022-09-23T01:18:07Z,42.805,6.029,13.3085,4.60127,2470.591,2022-9-23T03:20:00Z
2022-09-23T01:21:10Z,42.805,6.029,13.3095,4.60114,2470.544,2022-9-23T03:23:03Z
2022-09-23T01:24:13Z,42.805,6.029,13.3085,4.60101,2470.591,2022-9-23T03:26:06Z
2022-09-23T01:27:16Z,42.805,6.029,13.3088,4.60102,2470.567,2022-9-23T03:29:09Z
2022-09-23T01:30:19Z,42.805,6.029,13.3089,4.60111,2470.553,2022-9-23T03:32:12Z
2022-09-23T01:33:22Z,42.805,6.029,13.3091,4.60114,2470.591,2022-9-23T03:35:15Z
2022-09-23T01:36:25Z,42.805,6.029,13.3085,4.60103,2470.614,2022-9-23T03:38:18Z
2022-09-23T01:39:29Z,42.805,6.029,13.3085,4.60075,2470.567,2022-9-23T03:41:22Z
2022-09-23T01:42:32Z,42.805,6.029,13.3097,4.60080,2470.553,2022-9-23T03:44:25Z
2022-09-23T01:45:35Z,42.805,6.029,13.3097,4.60095,2470.553,2022-9-23T03:47:28Z
2022-09-23T01:48:38Z,42.805,6.029,13.3084,4.60084,2470.591,2022-9-23T03:50:31Z
2022-09-23T01:51:41Z,42.805,6.029,13.3083,4.60103,2470.591,2022-9-23T03:53:34Z
2022-09-23T01:54:44Z,42.805,6.029,13.3082,4.60119,2470.553,2022-9-23T03:56:37Z
2022-09-23T01:57:47Z,42.805,6.029,13.3086,4.60133,2470.577,2022-9-23T03:59:40Z
2022-09-23T02:00:50Z,42.805,6.029,13.3088,4.60144,2470.591,2022-9-23T04:02:44Z
2022-09-23T02:03:54Z,42.805,6.029,13.3085,4.60112,2470.553,2022-9-23T04:05:47Z
2022-09-23T02:06:57Z,42.805,6.029,13.3085,4.60117,2470.591,2022-9-23T04:08:50Z
2022-09-23T02:10:00Z,42.805,6.029,13.3085,4.60119,2470.567,2022-9-23T04:11:53Z
2022-09-23T02:13:03Z,42.805,6.029,13.3076,4.60132,2470.553,2022-9-23T04:14:56Z
2022-09-23T02:16:06Z,42.805,6.029,13.3015,4.60132,2470.567,2022-9-23T04:17:59Z
2022-09-23T02:19:09Z,42.805,6.029,13.3031,4.60140,2470.614,2022-9-23T04:21:02Z
2022-09-23T02:22:12Z,42.805,6.029,13.3063,4.60129,2470.553,2022-9-23T04:24:05Z
2022-09-23T02:25:15Z,42.805,6.029,13.3107,4.60136,2470.567,2022-9-23T04:27:08Z
2022-09-23T02:28:18Z,42.805,6.029,13.3098,4.60121,2470.577,2022-9-23T04:30:12Z
2022-09-23T02:31:22Z,42.805,6.029,13.3089,4.60129,2470.591,2022-9-23T04:33:15Z
2022-09-23T02:34:25Z,42.805,6.029,13.3089,4.60120,2470.591,2022-9-23T04:36:18Z
2022-09-23T02:37:28Z,42.805,6.029,13.3079,4.60114,2470.567,2022-9-23T04:39:21Z
2022-09-23T02:40:31Z,42.805,6.029,13.3079,4.60122,2470.577,2022-9-23T04:42:24Z
2022-09-23T02:43:34Z,42.805,6.029,13.3077,4.60122,2470.591,2022-9-23T04:45:27Z
2022-09-23T02:46:37Z,42.805,6.029,13.3075,4.60127,2470.567,2022-9-23T04:48:30Z
2022-09-23T02:49:40Z,42.805,6.029,13.3055,4.60127,2470.591,2022-9-23T04:51:33Z
2022-09-23T02:52:43Z,42.805,6.029,13.3028,4.60131,2470.577,2022-9-23T04:54:37Z
2022-09-23T02:55:47Z,42.805,6.029,13.3032,4.60094,2470.6,2022-9-23T04:57:40Z
2022-09-23T02:58:50Z,42.805,6.029,13.3026,4.60092,2470.577,2022-9-23T05:00:43Z
2022-09-23T03:01:53Z,42.805,6.029,13.3026,4.60097,2470.591,2022-9-23T05:03:46Z
2022-09-23T03:04:56Z,42.805,6.029,13.3032,4.60076,2470.567,2022-9-23T05:06:49Z
2022-09-23T03:07:59Z,42.805,6.029,13.3022,4.60066,2470.577,2022-9-23T05:09:52Z
2022-09-23T03:11:02Z,42.805,6.029,13.3023,4.60064,2470.614,2022-9-23T05:12:55Z
2022-09-23T03:14:05Z,42.805,6.029,13.3024,4.60063,2470.637,2022-9-23T05:15:58Z
2022-09-23T03:17:08Z,42.805,6.029,13.3026,4.60069,2470.591,2022-9-23T05:19:02Z
2022-09-23T03:20:12Z,42.805,6.029,13.3022,4.60080,2470.614,2022-9-23T05:22:05Z
2022-09-23T03:23:15Z,42.805,6.029,13.3019,4.60067,2470.591,2022-9-23T05:25:08Z
2022-09-23T03:26:18Z,42.805,6.029,13.3023,4.60064,2470.6,2022-9-23T05:28:11Z
2022-09-23T03:29:21Z,42.805,6.029,13.3022,4.60081,2470.614,2022-9-23T05:31:14Z
2022-09-23T03:32:24Z,42.805,6.029,13.3033,4.60094,2470.591,2022-9-23T05:34:17Z
2022-09-23T03:35:27Z,42.805,6.029,13.3036,4.60080,2470.591,2022-9-23T05:37:20Z
2022-09-23T03:38:30Z,42.805,6.029,13.3039,4.60073,2470.6,2022-9-23T05:40:23Z
2022-09-23T03:41:33Z,42.805,6.029,13.3034,4.60098,2470.614,2022-9-23T05:43:27Z
2022-09-23T03:44:37Z,42.805,6.029,13.3043,4.60093,2470.6,2022-9-23T05:46:30Z
2022-09-23T03:47:40Z,42.805,6.029,13.3035,4.60139,2470.614,2022-9-23T05:49:33Z
2022-09-23T03:50:43Z,42.805,6.029,13.3025,4.60141,2470.6,2022-9-23T05:52:36Z
2022-09-23T03:53:46Z,42.805,6.029,13.3028,4.60132,2470.614,2022-9-23T05:55:39Z
2022-09-23T03:56:49Z,42.805,6.029,13.3026,4.60117,2470.614,2022-9-23T05:58:42Z
2022-09-23T03:59:52Z,42.805,6.029,13.3016,4.60117,2470.614,2022-9-23T06:01:45Z
2022-09-23T04:02:55Z,42.805,6.029,13.3019,4.60104,2470.637,2022-9-23T06:04:48Z
2022-09-23T04:05:58Z,42.805,6.029,13.3014,4.60103,2470.614,2022-9-23T06:07:52Z
2022-09-23T04:09:01Z,42.805,6.029,13.3015,4.60112,2470.637,2022-9-23T06:10:55Z
2022-09-23T04:12:05Z,42.805,6.029,13.3021,4.60093,2470.614,2022-9-23T06:13:58Z
2022-09-23T04:15:08Z,42.805,6.029,13.3015,4.60079,2470.624,2022-9-23T06:17:01Z
2022-09-23T04:18:11Z,42.805,6.029,13.3061,4.60071,2470.624,2022-9-23T06:20:04Z
2022-09-23T04:21:14Z,42.805,6.029,13.3123,4.60067,2470.624,2022-9-23T06:23:07Z
2022-09-23T04:24:17Z,42.805,6.029,13.3082,4.60065,2470.6,2022-9-23T06:26:10Z
2022-09-23T04:27:20Z,42.805,6.029,13.3242,4.60104,2470.614,2022-9-23T06:29:13Z
2022-09-23T04:30:23Z,42.805,6.029,13.3102,4.60074,2470.624,2022-9-23T06:32:16Z
2022-09-23T04:33:26Z,42.805,6.029,13.3097,4.60069,2470.661,2022-9-23T06:35:20Z
2022-09-23T04:36:30Z,42.805,6.029,13.3081,4.60099,2470.661,2022-9-23T06:38:23Z
2022-09-23T04:39:33Z,42.805,6.029,13.3054,4.60120,2470.637,2022-9-23T06:41:26Z
2022-09-23T04:42:36Z,42.805,6.029,13.3078,4.60107,2470.637,2022-9-23T06:44:29Z
2022-09-23T04:45:39Z,42.805,6.029,13.3085,4.60117,2470.646,2022-9-23T06:47:32Z
2022-09-23T04:48:42Z,42.805,6.029,13.3055,4.60104,2470.661,2022-9-23T06:50:35Z
2022-09-23T04:51:45Z,42.805,6.029,13.3054,4.60110,2470.624,2022-9-23T06:53:38Z
2022-09-23T04:54:48Z,42.805,6.029,13.3039,4.60126,2470.637,2022-9-23T06:56:41Z
2022-09-23T04:57:51Z,42.805,6.029,13.3080,4.60117,2470.661,2022-9-23T06:59:45Z
2022-09-23T05:00:55Z,42.805,6.029,13.3051,4.60089,2470.637,2022-9-23T07:02:48Z
2022-09-23T05:03:58Z,42.805,6.029,13.3073,4.60110,2470.637,2022-9-23T07:05:51Z
2022-09-23T05:07:01Z,42.805,6.029,13.3073,4.60114,2470.661,2022-9-23T07:08:54Z
2022-09-23T05:10:04Z,42.805,6.029,13.3062,4.60104,2470.646,2022-9-23T07:11:57Z
2022-09-23T05:13:07Z,42.805,6.029,13.3048,4.60101,2470.637,2022-9-23T07:15:00Z
2022-09-23T05:16:10Z,42.805,6.029,13.3056,4.60101,2470.637,2022-9-23T07:18:03Z
2022-09-23T05:19:13Z,42.805,6.029,13.3060,4.60104,2470.624,2022-9-23T07:21:06Z
2022-09-23T05:22:16Z,42.805,6.029,13.3065,4.60137,2470.637,2022-9-23T07:24:10Z
2022-09-23T05:25:20Z,42.805,6.029,13.3045,4.60172,2470.67,2022-9-23T07:27:13Z
2022-09-23T05:28:23Z,42.805,6.029,13.3063,4.60160,2470.661,2022-9-23T07:30:16Z
2022-09-23T05:31:26Z,42.805,6.029,13.3082,4.60115,2470.637,2022-9-23T07:33:19Z
2022-09-23T05:34:29Z,42.805,6.029,13.3060,4.60147,2470.624,2022-9-23T07:36:22Z
2022-09-23T05:37:32Z,42.805,6.029,13.3068,4.60130,2470.646,2022-9-23T07:39:25Z
2022-09-23T05:40:35Z,42.805,6.029,13.3074,4.60138,2470.637,2022-9-23T07:42:28Z
2022-09-23T05:43:38Z,42.805,6.029,13.3069,4.60148,2470.67,2022-9-23T07:45:31Z
2022-09-23T05:46:41Z,42.805,6.029,13.3044,4.60132,2470.637,2022-9-23T07:48:35Z
2022-09-23T05:49:45Z,42.805,6.029,13.3038,4.60122,2470.661,2022-9-23T07:51:38Z
2022-09-23T05:52:48Z,42.805,6.029,13.3091,4.60131,2470.637,2022-9-23T07:54:41Z
2022-09-23T05:55:51Z,42.805,6.029,13.3059,4.60135,2470.624,2022-9-23T07:57:44Z
2022-09-23T05:58:54Z,42.805,6.029,13.3055,4.60124,2470.637,2022-9-23T08:00:47Z
2022-09-23T06:01:57Z,42.805,6.029,13.3070,4.60152,2470.646,2022-9-23T08:03:50Z
2022-09-23T06:05:00Z,42.805,6.029,13.3067,4.60152,2470.577,2022-9-23T08:06:53Z
2022-09-23T06:08:03Z,42.805,6.029,13.3059,4.60137,2470.6,2022-9-23T08:09:56Z
2022-09-23T06:11:06Z,42.805,6.029,13.3079,4.60131,2470.637,2022-9-23T08:12:59Z
2022-09-23T06:14:09Z,42.805,6.029,13.3084,4.60141,2470.646,2022-9-23T08:16:03Z
2022-09-23T06:17:13Z,42.805,6.029,13.3094,4.60103,2470.646,2022-9-23T08:19:06Z
2022-09-23T06:20:16Z,42.805,6.029,13.3076,4.60121,2470.661,2022-9-23T08:22:09Z
2022-09-23T06:23:19Z,42.805,6.029,13.3077,4.60110,2470.637,2022-9-23T08:25:12Z
2022-09-23T06:26:22Z,42.805,6.029,13.3062,4.60144,2470.624,2022-9-23T08:28:15Z
2022-09-23T06:29:25Z,42.805,6.029,13.3068,4.60142,2470.637,2022-9-23T08:31:18Z
2022-09-23T06:32:28Z,42.805,6.029,13.3071,4.60152,2470.637,2022-9-23T08:34:21Z
2022-09-23T06:35:31Z,42.805,6.029,13.3052,4.60116,2470.637,2022-9-23T08:37:24Z
2022-09-23T06:38:34Z,42.805,6.029,13.3081,4.60135,2470.6,2022-9-23T08:40:28Z
2022-09-23T06:41:38Z,42.805,6.029,13.3065,4.60167,2470.614,2022-9-23T08:43:31Z
2022-09-23T06:44:41Z,42.805,6.029,13.3065,4.60158,2470.646,2022-9-23T08:46:34Z
2022-09-23T06:47:44Z,42.805,6.029,13.3058,4.60144,2470.614,2022-9-23T08:49:37Z
2022-09-23T06:50:47Z,42.805,6.029,13.3056,4.60114,2470.614,2022-9-23T08:52:40Z
2022-09-23T06:53:50Z,42.805,6.029,13.3072,4.60136,2470.661,2022-9-23T08:55:43Z
2022-09-23T06:56:53Z,42.805,6.029,13.3077,4.60110,2470.614,2022-9-23T08:58:46Z
2022-09-23T06:59:56Z,42.805,6.029,13.3081,4.60127,2470.624,2022-9-23T09:01:49Z
2022-09-23T07:02:59Z,42.805,6.029,13.3079,4.60114,2470.646,2022-9-23T09:04:53Z
2022-09-23T07:06:03Z,42.805,6.029,13.3077,4.60091,2470.637,2022-9-23T09:07:56Z
2022-09-23T07:09:06Z,42.805,6.029,13.3083,4.60114,2470.661,2022-9-23T09:10:59Z
2022-09-23T07:12:09Z,42.805,6.029,13.3084,4.60123,2470.637,2022-9-23T09:14:02Z
2022-09-23T07:15:12Z,42.805,6.029,13.3068,4.60111,2470.624,2022-9-23T09:17:05Z
2022-09-23T07:18:15Z,42.805,6.029,13.3058,4.60110,2470.624,2022-9-23T09:20:08Z
2022-09-23T07:21:18Z,42.805,6.029,13.3050,4.60113,2470.637,2022-9-23T09:23:11Z
2022-09-23T07:24:21Z,42.805,6.029,13.3056,4.60102,2470.637,2022-9-23T09:26:14Z
2022-09-23T07:27:24Z,42.805,6.029,13.3062,4.60110,2470.637,2022-9-23T09:29:18Z
2022-09-23T07:30:28Z,42.805,6.029,13.3038,4.60110,2470.624,2022-9-23T09:32:21Z
2022-09-23T07:33:31Z,42.805,6.029,13.3031,4.60117,2470.624,2022-9-23T09:35:24Z
2022-09-23T07:36:34Z,42.805,6.029,13.3043,4.60119,2470.637,2022-9-23T09:38:27Z
2022-09-23T07:39:37Z,42.805,6.029,13.3046,4.60104,2470.6,2022-9-23T09:41:30Z
2022-09-23T07:42:40Z,42.805,6.029,13.3057,4.60125,2470.637,2022-9-23T09:44:33Z
2022-09-23T07:45:43Z,42.805,6.029,13.3062,4.60116,2470.614,2022-9-23T09:47:36Z
2022-09-23T07:48:46Z,42.805,6.029,13.3063,4.60121,2470.614,2022-9-23T09:50:39Z
2022-09-23T07:51:49Z,42.805,6.029,13.3045,4.60086,2470.637,2022-9-23T09:53:42Z
2022-09-23T07:54:52Z,42.805,6.029,13.3073,4.60079,2470.6,2022-9-23T09:56:46Z
2022-09-23T07:57:56Z,42.805,6.029,13.3082,4.60089,2470.6,2022-9-23T09:59:49Z
2022-09-23T08:00:59Z,42.805,6.029,13.3074,4.60081,2470.577,2022-9-23T10:02:52Z
2022-09-23T08:04:02Z,42.805,6.029,13.3076,4.60093,2470.614,2022-9-23T10:05:55Z
2022-09-23T08:07:05Z,42.805,6.029,13.3083,4.60084,2470.624,2022-9-23T10:08:58Z
2022-09-23T08:10:08Z,42.805,6.029,13.3078,4.60093,2470.637,2022-9-23T10:12:01Z
2022-09-23T08:13:11Z,42.805,6.029,13.3076,4.60081,2470.591,2022-9-23T10:15:04Z
2022-09-23T08:16:14Z,42.805,6.029,13.3058,4.60090,2470.591,2022-9-23T10:18:07Z
2022-09-23T08:19:17Z,42.805,6.029,13.3067,4.60094,2470.614,2022-9-23T10:21:11Z
2022-09-23T08:22:21Z,42.805,6.029,13.3049,4.60107,2470.6,2022-9-23T10:24:14Z
2022-09-23T08:25:24Z,42.805,6.029,13.3049,4.60104,2470.651,2022-9-23T10:27:17Z
2022-09-23T08:28:27Z,42.805,6.029,13.3078,4.60099,2470.624,2022-9-23T10:30:20Z
2022-09-23T08:31:30Z,42.805,6.029,13.3085,4.60087,2470.614,2022-9-23T10:33:23Z
2022-09-23T08:34:33Z,42.805,6.029,13.3068,4.60088,2470.614,2022-9-23T10:36:26Z
2022-09-23T08:37:36Z,42.805,6.029,13.3061,4.60092,2470.591,2022-9-23T10:39:29Z
2022-09-23T08:40:39Z,42.805,6.029,13.3052,4.60099,2470.591,2022-9-23T10:42:32Z
2022-09-23T08:43:42Z,42.805,6.029,13.3050,4.60106,2470.577,2022-9-23T10:45:36Z
2022-09-23T08:46:46Z,42.805,6.029,13.3069,4.60095,2470.637,2022-9-23T10:48:39Z
2022-09-23T08:49:49Z,42.805,6.029,13.3069,4.60107,2470.624,2022-9-23T10:51:42Z
2022-09-23T08:52:52Z,42.805,6.029,13.3073,4.60101,2470.591,2022-9-23T10:54:45Z
2022-09-23T08:55:55Z,42.805,6.029,13.3073,4.60101,2470.567,2022-9-23T10:57:48Z
2022-09-23T08:58:58Z,42.805,6.029,13.3067,4.60084,2470.577,2022-9-23T11:00:51Z
2022-09-23T09:02:01Z,42.805,6.029,13.3068,4.60104,2470.6,2022-9-23T11:03:54Z
2022-09-23T09:05:04Z,42.805,6.029,13.3071,4.60081,2470.577,2022-9-23T11:06:57Z
2022-09-23T09:08:07Z,42.805,6.029,13.3063,4.60092,2470.567,2022-9-23T11:10:01Z
2022-09-23T09:11:11Z,42.805,6.029,13.3064,4.60094,2470.577,2022-9-23T11:13:04Z
2022-09-23T09:14:14Z,42.805,6.029,13.3090,4.59998,2470.577,2022-9-23T11:16:07Z
2022-09-23T09:17:17Z,42.805,6.029,13.3073,4.60075,2470.614,2022-9-23T11:19:10Z
2022-09-23T09:20:20Z,42.805,6.029,13.3069,4.60067,2470.567,2022-9-23T11:22:13Z
2022-09-23T09:23:23Z,42.805,6.029,13.3069,4.60072,2470.553,2022-9-23T11:25:16Z
2022-09-23T09:26:26Z,42.805,6.029,13.3067,4.60079,2470.567,2022-9-23T11:28:19Z
2022-09-23T09:29:29Z,42.805,6.029,13.3071,4.60079,2470.567,2022-9-23T11:31:22Z
2022-09-23T09:32:32Z,42.805,6.029,13.3071,4.60103,2470.577,2022-9-23T11:34:26Z
2022-09-23T09:35:36Z,42.805,6.029,13.3067,4.60104,2470.591,2022-9-23T11:37:29Z
2022-09-23T09:38:39Z,42.805,6.029,13.3070,4.60098,2470.577,2022-9-23T11:40:32Z
2022-09-23T09:41:42Z,42.805,6.029,13.3061,4.60094,2470.577,2022-9-23T11:43:35Z
2022-09-23T09:44:45Z,42.805,6.029,13.3061,4.60093,2470.567,2022-9-23T11:46:38Z
2022-09-23T09:47:48Z,42.805,6.029,13.3064,4.60079,2470.567,2022-9-23T11:49:41Z
2022-09-23T09:50:51Z,42.805,6.029,13.3077,4.60095,2470.567,2022-9-23T11:52:44Z
2022-09-23T09:53:54Z,42.805,6.029,13.3077,4.60101,2470.544,2022-9-23T11:55:48Z
2022-09-23T09:56:58Z,42.805,6.029,13.3085,4.60093,2470.567,2022-9-23T11:58:51Z
2022-09-23T10:00:01Z,42.805,6.029,13.3073,4.60086,2470.567,2022-9-23T12:01:54Z
2022-09-23T10:03:04Z,42.805,6.029,13.3076,4.60079,2470.577,2022-9-23T12:04:57Z
2022-09-23T10:06:07Z,42.805,6.029,13.3054,4.60075,2470.53,2022-9-23T12:08:00Z
2022-09-23T10:09:10Z,42.805,6.029,13.3059,4.60079,2470.544,2022-9-23T12:11:03Z
2022-09-23T10:12:13Z,42.805,6.029,13.3058,4.60075,2470.553,2022-9-23T12:14:06Z
2022-09-23T10:15:16Z,42.805,6.029,13.3062,4.60084,2470.567,2022-9-23T12:17:09Z
2022-09-23T10:18:19Z,42.805,6.029,13.3057,4.60096,2470.553,2022-9-23T12:20:12Z
2022-09-23T10:21:22Z,42.805,6.029,13.3052,4.60094,2470.567,2022-9-23T12:23:16Z
2022-09-23T10:24:26Z,42.805,6.029,13.3061,4.60070,2470.567,2022-9-23T12:26:19Z
2022-09-23T10:27:29Z,42.805,6.029,13.3062,4.60081,2470.52,2022-9-23T12:29:22Z
2022-09-23T10:30:32Z,42.805,6.029,13.3061,4.60096,2470.544,2022-9-23T12:32:25Z
2022-09-23T10:33:35Z,42.805,6.029,13.3065,4.60069,2470.52,2022-9-23T12:35:28Z
2022-09-23T10:36:38Z,42.805,6.029,13.3074,4.60069,2470.52,2022-9-23T12:38:31Z
2022-09-23T10:39:41Z,42.805,6.029,13.3085,4.60120,2470.53,2022-9-23T12:41:34Z
2022-09-23T10:42:44Z,42.805,6.029,13.3068,4.60094,2470.544,2022-9-23T12:44:37Z
2022-09-23T10:45:47Z,42.805,6.029,13.3068,4.60157,2470.483,2022-9-23T12:47:41Z
2022-09-23T10:48:51Z,42.805,6.029,13.3079,4.60091,2470.544,2022-9-23T12:50:44Z
2022-09-23T10:51:54Z,42.805,6.029,13.3089,4.60097,2470.53,2022-9-23T12:53:47Z
2022-09-23T10:54:57Z,42.805,6.029,13.3104,4.60089,2470.567,2022-9-23T12:56:50Z
2022-09-23T10:58:00Z,42.805,6.029,13.3101,4.60081,2470.507,2022-9-23T12:59:53Z
2022-09-23T11:01:03Z,42.805,6.029,13.3094,4.60088,2470.53,2022-9-23T13:02:56Z
2022-09-23T11:04:06Z,42.805,6.029,13.3088,4.60086,2470.567,2022-9-23T13:05:59Z
2022-09-23T11:07:09Z,42.805,6.029,13.3086,4.60104,2470.553,2022-9-23T13:09:02Z
2022-09-23T11:10:12Z,42.805,6.029,13.3078,4.60079,2470.507,2022-9-23T13:12:06Z
2022-09-23T11:13:16Z,42.805,6.029,13.3078,4.60100,2470.53,2022-9-23T13:15:09Z
2022-09-23T11:16:19Z,42.805,6.029,13.3075,4.60119,2470.553,2022-9-23T13:18:12Z
2022-09-23T11:19:22Z,42.805,6.029,13.3023,4.60128,2470.544,2022-9-23T13:21:15Z
2022-09-23T11:22:25Z,42.805,6.029,13.3061,4.60126,2470.544,2022-9-23T13:24:18Z
2022-09-23T11:25:28Z,42.805,6.029,13.3027,4.60119,2470.53,2022-9-23T13:27:21Z
2022-09-23T11:28:31Z,42.805,6.029,13.3049,4.60122,2470.507,2022-9-23T13:30:24Z
2022-09-23T11:31:34Z,42.805,6.029,13.3054,4.60120,2470.53,2022-9-23T13:33:27Z
2022-09-23T11:34:37Z,42.805,6.029,13.3044,4.60134,2470.52,2022-9-23T13:36:31Z
2022-09-23T11:37:41Z,42.805,6.029,13.3070,4.60122,2470.534,2022-9-23T13:39:34Z
2022-09-23T11:40:44Z,42.805,6.029,13.3126,4.60123,2470.507,2022-9-23T13:42:37Z
2022-09-23T11:43:47Z,42.805,6.029,13.3107,4.60088,2470.52,2022-9-23T13:45:40Z
2022-09-23T11:46:50Z,42.805,6.029,13.3089,4.60091,2470.558,2022-9-23T13:48:43Z
2022-09-23T11:49:53Z,42.805,6.029,13.3100,4.60090,2470.507,2022-9-23T13:51:46Z
2022-09-23T11:52:56Z,42.805,6.029,13.3067,4.60103,2470.544,2022-9-23T13:54:49Z
2022-09-23T11:55:59Z,42.805,6.029,13.3043,4.60135,2470.567,2022-9-23T13:57:52Z
2022-09-23T11:59:02Z,42.805,6.029,13.3016,4.60122,2470.53,2022-9-23T14:00:56Z
2022-09-23T12:02:06Z,42.805,6.029,13.3024,4.60090,2470.544,2022-9-23T14:03:59Z
2022-09-23T12:05:09Z,42.805,6.029,13.3010,4.60125,2470.53,2022-9-23T14:07:02Z
2022-09-23T12:08:12Z,42.805,6.029,13.3011,4.60108,2470.553,2022-9-23T14:10:05Z
2022-09-23T12:11:15Z,42.805,6.029,13.3021,4.60105,2470.53,2022-9-23T14:13:08Z
2022-09-23T12:14:18Z,42.805,6.029,13.3013,4.60141,2470.53,2022-9-23T14:16:11Z
2022-09-23T12:17:21Z,42.805,6.029,13.3022,4.60103,2470.544,2022-9-23T14:19:14Z
2022-09-23T12:20:24Z,42.805,6.029,13.3039,4.60099,2470.53,2022-9-23T14:22:17Z
2022-09-23T12:23:27Z,42.805,6.029,13.3013,4.60095,2470.507,2022-9-23T14:25:21Z
2022-09-23T12:26:31Z,42.805,6.029,13.3010,4.60105,2470.53,2022-9-23T14:28:24Z
2022-09-23T12:29:34Z,42.805,6.029,13.3033,4.60099,2470.544,2022-9-23T14:31:27Z
2022-09-23T12:32:37Z,42.805,6.029,13.3013,4.60132,2470.53,2022-9-23T14:34:30Z
2022-09-23T12:35:40Z,42.805,6.029,13.3011,4.60104,2470.544,2022-9-23T14:37:33Z
2022-09-23T12:38:43Z,42.805,6.029,13.3006,4.60089,2470.544,2022-9-23T14:40:36Z
2022-09-23T12:41:46Z,42.805,6.029,13.3011,4.60087,2470.53,2022-9-23T14:43:39Z
2022-09-23T12:44:49Z,42.805,6.029,13.3010,4.60086,2470.544,2022-9-23T14:46:42Z
2022-09-23T12:47:52Z,42.805,6.029,13.3011,4.60094,2470.544,2022-9-23T14:49:46Z
2022-09-23T12:50:56Z,42.805,6.029,13.3007,4.60081,2470.52,2022-9-23T14:52:49Z
2022-09-23T12:53:59Z,42.805,6.029,13.3011,4.60087,2470.567,2022-9-23T14:55:52Z
2022-09-23T12:57:02Z,42.805,6.029,13.3014,4.60104,2470.53,2022-9-23T14:58:55Z
2022-09-23T13:00:05Z,42.805,6.029,13.3014,4.60121,2470.567,2022-9-23T15:01:58Z
2022-09-23T13:03:08Z,42.805,6.029,13.3010,4.60115,2470.53,2022-9-23T15:05:01Z
2022-09-23T13:06:11Z,42.805,6.029,13.3011,4.60086,2470.53,2022-9-23T15:08:04Z
2022-09-23T13:09:14Z,42.805,6.029,13.3014,4.60087,2470.53,2022-9-23T15:11:07Z
2022-09-23T13:12:17Z,42.805,6.029,13.3013,4.60070,2470.53,2022-9-23T15:14:11Z
2022-09-23T13:15:21Z,42.805,6.029,13.3010,4.60064,2470.544,2022-9-23T15:17:14Z
2022-09-23T13:18:24Z,42.805,6.029,13.3008,4.60064,2470.53,2022-9-23T15:20:17Z
2022-09-23T13:21:27Z,42.805,6.029,13.3013,4.60073,2470.553,2022-9-23T15:23:20Z
2022-09-23T13:24:30Z,42.805,6.029,13.3014,4.60064,2470.591,2022-9-23T15:26:23Z
2022-09-23T13:27:33Z,42.805,6.029,13.3006,4.60074,2470.567,2022-9-23T15:29:26Z
2022-09-23T13:30:36Z,42.805,6.029,13.3006,4.60070,2470.544,2022-9-23T15:32:29Z
2022-09-23T13:33:39Z,42.805,6.029,13.3011,4.60081,2470.553,2022-9-23T15:35:33Z
2022-09-23T13:36:42Z,42.805,6.029,13.3011,4.60072,2470.567,2022-9-23T15:38:36Z
2022-09-23T13:39:46Z,42.805,6.029,13.3011,4.60074,2470.544,2022-9-23T15:41:39Z
2022-09-23T13:42:49Z,42.805,6.029,13.3014,4.60069,2470.567,2022-9-23T15:44:42Z
2022-09-23T13:45:52Z,42.805,6.029,13.3009,4.60074,2470.553,2022-9-23T15:47:45Z
2022-09-23T13:48:55Z,42.805,6.029,13.3008,4.60079,2470.553,2022-9-23T15:50:48Z
2022-09-23T13:51:58Z,42.805,6.029,13.3011,4.60084,2470.567,2022-9-23T15:53:51Z
2022-09-23T13:55:01Z,42.805,6.029,13.3008,4.60089,2470.591,2022-9-23T15:56:54Z
2022-09-23T13:58:04Z,42.805,6.029,13.3006,4.60069,2470.553,2022-9-23T15:59:58Z
2022-09-23T14:01:07Z,42.805,6.029,13.3012,4.60075,2470.567,2022-9-23T16:03:01Z
2022-09-23T14:04:11Z,42.805,6.029,13.3011,4.60076,2470.614,2022-9-23T16:06:04Z
2022-09-23T14:07:14Z,42.805,6.029,13.3009,4.60084,2470.567,2022-9-23T16:09:07Z
2022-09-23T14:10:17Z,42.805,6.029,13.3009,4.60085,2470.553,2022-9-23T16:12:10Z
2022-09-23T14:13:20Z,42.805,6.029,13.3007,4.60079,2470.591,2022-9-23T16:15:13Z
2022-09-23T14:16:23Z,42.805,6.029,13.3010,4.60080,2470.6,2022-9-23T16:18:16Z
2022-09-23T14:19:26Z,42.805,6.029,13.3010,4.60063,2470.591,2022-9-23T16:21:19Z
2022-09-23T14:22:29Z,42.805,6.029,13.3010,4.60064,2470.577,2022-9-23T16:24:23Z
2022-09-23T14:25:33Z,42.805,6.029,13.3008,4.60059,2470.591,2022-9-23T16:27:26Z
2022-09-23T14:28:36Z,42.805,6.029,13.3006,4.60057,2470.6,2022-9-23T16:30:29Z
2022-09-23T14:31:39Z,42.805,6.029,13.3008,4.60059,2470.6,2022-9-23T16:33:32Z
2022-09-23T14:34:42Z,42.805,6.029,13.3011,4.60059,2470.591,2022-9-23T16:36:35Z
2022-09-23T14:37:45Z,42.805,6.029,13.3010,4.60062,2470.6,2022-9-23T16:39:38Z
2022-09-23T14:40:48Z,42.805,6.029,13.3009,4.60062,2470.624,2022-9-23T16:42:41Z
2022-09-23T14:43:51Z,42.805,6.029,13.3009,4.60064,2470.577,2022-9-23T16:45:44Z
2022-09-23T14:46:54Z,42.805,6.029,13.3011,4.60067,2470.591,2022-9-23T16:48:48Z
2022-09-23T14:49:58Z,42.805,6.029,13.3012,4.60068,2470.591,2022-9-23T16:51:51Z
2022-09-23T14:53:01Z,42.805,6.029,13.3011,4.60068,2470.6,2022-9-23T16:54:54Z
2022-09-23T14:56:04Z,42.805,6.029,13.3011,4.60067,2470.6,2022-9-23T16:57:57Z
2022-09-23T14:59:07Z,42.805,6.029,13.3011,4.60067,2470.6,2022-9-23T17:01:00Z
2022-09-23T15:02:10Z,42.805,6.029,13.3010,4.60062,2470.6,2022-9-23T17:04:03Z
2022-09-23T15:05:13Z,42.805,6.029,13.3010,4.60063,2470.6,2022-9-23T17:07:06Z
2022-09-23T15:08:16Z,42.805,6.029,13.3009,4.60062,2470.614,2022-9-23T17:10:09Z
2022-09-23T15:11:19Z,42.805,6.029,13.3012,4.60067,2470.637,2022-9-23T17:13:13Z